DELTA 1 DEB, 21383

Orbit data source: Space-Track

DELTA 1 DEB, 21383 is space debris in SSO originally from a launch on Thu, 12 Jun 1975 UTC launched from the Air Force Western Test Range (AFWTR). Debris objects in space refer to the collection of defunct objects orbiting the Earth. Examples of debris include non-operational satellites, rocket bodies, and fragments generated from explosions, collisions, or faulty payload assembly.

Loading next visibility...
Identifier
21383, 1975-052DD
Orbit
SSO
Country
Flag of USUS
Related business
Manufacturer
Unknown
Mission
Spacecraft
Bus & Motor
Unknown
Mass
Unknown
Launch date (UTC)
1975-06-12 (50 years ago)
Launch vehicle
Unknown
Launch site
Air Force Western Test Range (AFWTR)
Object type
Payload
Rocket body
Debris
Shape & HBR
Unknown shape, 0.1 m
Radar Cross Section
Small (<0.1 m²)

Expand to show TLE details & history
Last TLE update: 3 days ago

TLE from 3 days ago
0 DELTA 1 DEB
1 21383U 75052DD  25285.29003131  .00000163  00000-0  72893-3 0  9999
2 21383  99.7069 210.5449 0364003 171.1286 342.3345 12.73153157596892
Epoch: 2025-10-12T06:57Z
TLE epoch observation values (Epoch: 2025-10-12T06:57:38.705Z)
Latitude
27.46786°
Longitude
-89.90029°
Altitude
1,104.539 km
Speed
7.428 km/s
True Right ascension
02h 22m 28s
True Declination
27° 20' 02"
Sunlit
Object was in full shadow at epoch
Visualization orbit readout
Latitude
Unknown
Longitude
Unknown
Altitude
Unknown
Speed
Unknown
Apparent Right ascension
Unknown
Apparent Declination
Unknown
Sunlit
N/A
Visualization observer readout
Local Sidereal Time
22:17:01
Azimuth
Unknown
Elevation
Unknown
Doppler factor
Unknown
Orbital elements
Apogee altitude
1,648.43 km
Perigee altitude
1,084.614 km
Semi-major axis
7,744.659 km
Eccentricity
0.0364
Inclination
99.7069°
RAAN
210.5449°
Arg. of periapsis
171.1286°
True anomaly
341.01158°
Mean anomaly
342.3345°
Eccentric anomaly
341.67891°
Mean motion
3.18449 °/min
Orbital period
113.05 mins
BSTAR
0.00072893
Loading maneuver chart data...
Computing Atmospheric mass density...
Loading historical data...
Loading historical data...
Loading historical data...
Loading historical data...
Loading historical data...
Loading historical data...
Loading historical data...

Documentation

Showing up to 5 results
|